STARLINK-32133, 60333

Orbit data source: Space-Track

STARLINK-32133, 60333 is a payload satellite owned by SpaceX/Seattle (US) in LEO that was launched on Fri, 02 Aug 2024 UTC via an FALCON 9 launch vehicle from the Air Force Eastern Test Range (AFETR). Payloads include a variety of satellites, spacecraft, and rockets equipped with specific instruments for various scientific and technological missions. These include communications satellites like Starlink; space stations such as the ISS; scientific satellites like the Hubble; Earth observation satellites from companies like Planet Labs, Umbra, and HawkEye 360; GPS; miniature CubeSats for education and research; and military/defense satellites.

Loading next visibility...
STARLINK-32133 details
Identifier
60333, 2024-136E
Orbit
LEO
Last TLE update21 hours ago
Origin
Flag of USSpaceX/Seattle (US)
ManufacturerSpaceX/Seattle
MissionOperational spacecraft
Bus & MotorSTARLINK V2M, Unknown motor
Mass730 kg wet, ~700 kg dry
Launch date (UTC)
2024-08-02 (5 months ago)
Launch vehicle
FALCON 9
Launch site
Air Force Eastern Test Range (AFETR)
Object type
Payload
Rocket body
Debris
Shape & HBRUnknown
Radar Cross SectionLarge (>1 m²)

Expand to show TLE details & history

TLE from 21 hours ago
0 STARLINK-32133
1 60333U 24136E   24356.34880915  .00000905  00000-0  42676-4 0  9992
2 60333  53.1627 335.1898 0001085  82.1199 277.9925 15.30200033 21788
Epoch: 2024-12-21T08:22Z
Definitive object data (Epoch: 2024-12-21T08:22:17.11Z)
Latitude-0.00002°
Longitude119.21724°
Altitude476.012 km
Speed7.629 km/s
True Right ascension22h 20m 45s
True Declination0° 00' 00"
Sunlit
Object was in daylight at TLE epoch
Visualization TLE readout
Latitude37.7408°
Longitude-100.05087°
Altitude477.807 km
Speed7.632 km/s
Apparent Right ascension11h 38m 33s
Apparent Declination1° 21' 38"
Sunlit
Object is in full shadow
Visualization observer readout
Local Sidereal Time04:23:33
Azimuth76.664° E
Elevation-13.369°
Doppler factor1
Orbital elements
Apogee altitude476.215 km
Perigee altitude474.727 km
Semi-major axis6,853.608 km
Eccentricity0.0001085
Inclination53.1627°
RAAN335.1898°
Arg. of periapsis82.1199°
True anomaly277.98019°
Mean anomaly277.9925°
Eccentric anomaly277.98634°
Mean motion3.82529 °/min
BSTAR0.000042676
Orbital period94.11 mins
Loading maneuver chart data...
Loading historical data...
Loading historical data...
Loading historical data...
Loading historical data...
Loading historical data...
Loading historical data...
Loading historical data...

STARLINK-32133 Visibility forecast

Observer location: undefined°, undefined

Span
Click to sort rows by Start time (UTC) header in descending order
Start Az.
Max El. time (UTC)
Max El. Az.
Max El.
End time (UTC)
End Az.
4 mins2024-12-22 06:45:58.795Z343.661° N2024-12-22 06:47:58.795Z22.118° NNE18.152°2024-12-22 06:49:58.795Z61.252° ENE
5 mins2024-12-22 08:23:58.795Z307.578° NW2024-12-22 08:25:58.795Z289.586° WNW43.45°2024-12-22 08:28:58.795Z134.464° SE
5 mins2024-12-23 01:19:58.795Z236.156° WSW2024-12-23 01:21:58.795Z10.59° NNE43.975°2024-12-23 01:24:58.795Z47.716° ENE
|